Change the Weather History Date:

Wednesday, October 12, 2011

  Actual Average Record
Temperature  
Mean Temperature 61 °F 58 °F  
Max Temperature 64 °F 69 °F 90 °F (1930)
Min Temperature 57 °F 47 °F 29 °F (1906)
Degree Days  
Heating Degree Days 4 8  
Month to date heating degree days 74 79  
Since 1 July heating degree days 113 137  
Cooling Degree Days 0 1  
Month to date cooling degree days 1 14  
Year to date cooling degree days 1367 1087  
Growing Degree Days 10 (Base 50)    
Moisture  
Dew Point 55 °F    
Average Humidity 83    
Maximum Humidity 93    
Minimum Humidity 73    
Precipitation  
Precipitation 0.43 in 0.08 in 1.45 in (1919)
Month to date precipitation 1.04 1.03  
Year to date precipitation 39.14 35.39  
Snow  
Snow 0.00 in - - ()
Month to date snowfall 0.0  
Since 1 September snowfall 0.0  
Snow Depth 0.00 in    
Sea Level Pressure  
Sea Level Pressure 29.87 in    
Wind  
Wind Speed 1 mph (ENE)    
Max Wind Speed 9 mph    
Max Gust Speed 9 mph    
Visibility 6 miles    
Events Rain    
T = Trace of Precipitation, MM = Missing Value Source: NWS Daily Summary

Daily Weather History Graph

Daily Weather History Graph

Search for Another Location

Airport or City:

Trip Planner

Search our weather history database for the weather conditions in past years. The results will help you decide how hot, cold, wet, or windy it might be!

Date:

Astronomy

Oct. 12, 2011 Rise Set
Actual Time 7:32 AM EDT 6:53 PM EDT
Civil Twilight 7:05 AM EDT 7:19 PM EDT
Nautical Twilight 6:34 AM EDT 7:50 PM EDT
Astronomical Twilight 6:04 AM EDT 8:20 PM EDT
Moon 6:55 PM EDT (10/12) 8:04 AM EDT (10/12)
Length of Visible Light 12h 14m
Length of Day
11h 20m
Full, 100% of the Moon is Illuminated
Oct 12
Full
Oct 19
Last Quarter
Oct 26
New
Nov 2
First Quarter
Nov 10
Full

Hourly Weather History & Observations

Time (EDT) Temp. Dew Point Humidity Pressure Visibility Wind Dir Wind Speed Gust Speed Precip Events Conditions
12:45 AM 57.2 °F 55.4 °F 94% 30.00 in 4.0 mi Calm Calm - 0.04 in Rain Light Rain
12:54 AM 57.0 °F 55.0 °F 93% 29.98 in 4.0 mi Calm Calm - 0.05 in Rain Light Rain
1:54 AM 57.0 °F 55.0 °F 93% 29.96 in 4.0 mi Calm Calm - 0.05 in Rain Light Rain
2:54 AM 57.0 °F 55.0 °F 93% 29.94 in 3.0 mi Calm Calm - 0.06 in Rain Rain
3:36 AM 57.2 °F 53.6 °F 88% 29.93 in 3.0 mi NE 3.5 mph - 0.04 in Rain Light Rain
3:54 AM 57.0 °F 55.0 °F 93% 29.91 in 3.0 mi NE 3.5 mph - 0.04 in Rain Light Rain
4:54 AM 57.0 °F 55.0 °F 93% 29.90 in 1.0 mi NNE 3.5 mph - 0.09 in Rain Rain
5:54 AM 57.0 °F 55.0 °F 93% 29.90 in 2.0 mi Calm Calm - 0.09 in Rain Rain
6:54 AM 57.0 °F 55.0 °F 93% 29.90 in 2.0 mi Calm Calm - 0.06 in Rain Light Rain
7:22 AM 57.2 °F 55.4 °F 94% 29.91 in 2.0 mi Calm Calm - 0.00 in Rain Light Rain
7:54 AM 57.0 °F 55.0 °F 93% 29.90 in 1.5 mi Calm Calm - 0.02 in Rain Light Rain
8:54 AM 57.0 °F 55.0 °F 93% 29.90 in 1.0 mi Calm Calm - 0.01 in Rain Light Rain
9:54 AM 57.9 °F 55.0 °F 90% 29.89 in 1.0 mi Calm Calm - 0.01 in   Overcast
10:25 AM 60.8 °F 55.4 °F 82% 29.89 in 6.0 mi East 3.5 mph - N/A   Overcast
10:54 AM 60.1 °F 55.0 °F 83% 29.88 in 6.0 mi ESE 15.0 mph 52.9 mph N/A   Haze
11:54 AM 60.1 °F 55.9 °F 86% 29.87 in 10.0 mi Calm Calm - N/A   Overcast
12:54 PM 62.1 °F 55.0 °F 78% 29.86 in 10.0 mi SSW 3.5 mph - N/A   Overcast
1:26 PM 62.6 °F 55.4 °F 77% 29.87 in 10.0 mi Calm Calm - N/A   Overcast
1:54 PM 63.0 °F 55.9 °F 78% 29.84 in 10.0 mi Calm Calm - N/A   Overcast
2:54 PM 62.6 °F 55.4 °F 77% 29.84 in 10.0 mi Variable 3.5 mph - N/A   Overcast
3:54 PM 63.0 °F 55.9 °F 78% 29.82 in 10.0 mi WSW 3.5 mph - N/A   Mostly Cloudy
4:48 PM 64.4 °F 55.4 °F 73% 29.82 in 10.0 mi Calm Calm - N/A   Overcast
4:54 PM 64.0 °F 55.9 °F 75% 29.80 in 10.0 mi Calm Calm - N/A   Overcast
5:54 PM 63.0 °F 55.9 °F 78% 29.81 in 10.0 mi Calm Calm - N/A   Overcast
6:54 PM 62.1 °F 55.9 °F 80% 29.80 in 10.0 mi Calm Calm - N/A   Overcast
7:54 PM 62.1 °F 55.9 °F 80% 29.80 in 10.0 mi Calm Calm - N/A   Overcast
8:54 PM 61.0 °F 57.0 °F 87% 29.81 in 10.0 mi Calm Calm - N/A   Mostly Cloudy
9:54 PM 60.1 °F 57.0 °F 90% 29.81 in 10.0 mi Calm Calm - N/A   Scattered Clouds
10:54 PM 59.0 °F 55.9 °F 90% 29.80 in 7.0 mi Calm Calm - N/A   Mostly Cloudy
11:54 PM 57.9 °F 55.9 °F 93% 29.79 in 7.0 mi Calm Calm - N/A   Mostly Cloudy